DW1024 Weather Reports


Display with metric or nautical units.
time (UTC)temp
F
wind
direction
speed
MPH
gust
MPH
rain 1hr
in
rain 24hr
in
rain mn
in
humidity
%
barometer
mb
20260508130620 66 86 4.0 11.0 0.00 0.00 0.00 58 1016.7
20260508125117 69 38 3.0 8.0 0.00 0.00 0.00 54 1016.7
20260508123619 67 38 2.0 7.0 0.00 0.00 0.00 60 1016.8
20260508122117 67 88 3.0 11.0 0.00 0.00 0.00 56 1016.8
20260508120617 67 273 2.0 10.0 0.00 0.00 0.00 59 1016.7
20260508115117 65 15 3.0 10.0 0.00 0.00 0.00 60 1016.7
20260508113619 67 61 3.0 12.0 0.00 0.00 0.00 56 1016.9
20260508112117 66 106 3.0 8.0 0.00 0.00 0.00 59 1017.1
20260508110618 66 76 2.0 9.0 0.00 0.00 0.00 61 1017.1
20260508105119 65 116 3.0 11.0 0.00 0.00 0.00 62 1017.2
20260508103614 64 59 3.0 9.0 0.00 0.00 0.00 64 1017.3
20260508100614 62 192 2.0 5.0 0.00 0.00 0.00 70 1017.5
20260508095114 59 41 1.0 6.0 0.00 0.00 0.00 72 1017.5
20260508093614 58 84 2.0 8.0 0.00 0.00 0.00 75 1017.6
20260508092114 57 72 2.0 7.0 0.00 0.00 0.00 77 1017.6
20260508090617 56 15 2.0 5.0 0.00 0.00 0.00 79 1017.6
20260508083614 55 52 1.0 4.0 0.00 0.00 0.00 83 1017.6
20260508082115 55 53 2.0 6.0 0.00 0.00 0.00 82 1017.6
20260508080610 54 253 1.0 6.0 0.00 0.00 0.00 85 1017.6
20260508075109 53 295 1.0 4.0 0.00 0.00 0.00 89 1017.6
20260508073609 52 211 1.0 3.0 0.00 0.00 0.00 91 1017.6
20260508071830 50 52 1.0 5.0 0.00 0.00 0.00 95 1017.5
20260508065108 49 228 1.0 6.0 0.00 0.00 0.00 96 1017.6
20260508062106 47 200 1.0 3.0 0.00 0.00 0.00 96 1017.5
20260508060605 46 65 0.0 0.0 0.00 0.00 0.00 96 1017.4
20260508055105 46 140 0.0 0.0 0.00 0.00 0.00 95 1017.1
20260508052104 45 121 0.0 0.0 0.00 0.00 0.00 94 1017.0
20260508045101 45 210 0.0 2.0 0.00 0.00 0.00 93 1016.9
20260508042102 44 164 0.0 2.0 0.00 0.00 0.00 91 1016.7
20260508040600 43 164 0.0 1.0 0.00 0.00 0.00 91 1016.7
20260508035102 43 164 0.0 1.0 0.00 0.00 0.00 90 1016.7
20260508033606 43 164 0.0 3.0 0.00 0.00 0.00 90 1016.6
20260508032105 42 218 0.0 3.0 0.00 0.00 0.00 89 1016.5
20260508030607 42 47 0.0 1.0 0.00 0.00 0.00 88 1016.3
20260508025103 42 47 0.0 0.0 0.00 0.00 0.00 86 1016.4
20260508022100 43 47 0.0 0.0 0.00 0.00 0.00 86 1016.6
20260508020557 44 47 0.0 0.0 0.00 0.00 0.00 86 1016.6
20260508015105 44 47 0.0 0.0 0.00 0.00 0.00 85 1016.7
20260508013554 45 47 0.0 0.0 0.00 0.00 0.00 85 1016.7
20260508012053 45 47 0.0 0.0 0.00 0.00 0.00 85 1016.7
20260508010553 46 47 0.0 0.0 0.00 0.00 0.00 85 1016.7
20260508005052 47 47 0.0 0.0 0.00 0.00 0.00 84 1016.7
20260508003555 47 47 0.0 0.0 0.00 0.00 0.00 84 1016.8
20260508002048 48 47 0.0 0.0 0.00 0.00 0.00 84 1016.9
20260508000549 49 47 0.0 0.0 0.00 0.00 0.00 83 1017.0
20260507235053 50 47 0.0 0.0 0.00 0.00 0.00 84 1017.1
20260507233545 50 47 0.0 0.0 0.00 0.00 0.00 84 1017.2
20260507232046 51 47 0.0 0.0 0.00 0.00 0.00 84 1017.3
20260507230548 51 47 0.0 1.0 0.00 0.00 0.00 84 1017.3
20260507225044 51 47 0.0 1.0 0.00 0.00 0.00 84 1017.4
20260507223545 51 47 0.0 1.0 0.00 0.00 0.00 84 1017.5
20260507222040 51 47 0.0 0.0 0.00 0.00 0.00 83 1017.5
20260507220557 51 47 0.0 1.0 0.00 0.00 0.00 83 1017.5
20260507215036 51 47 0.0 1.0 0.00 0.00 0.00 82 1017.5
20260507213536 51 47 0.0 1.0 0.00 0.00 0.00 81 1017.5
20260507212041 51 47 0.0 0.0 0.00 0.00 0.00 80 1017.5
20260507210552 52 47 0.0 0.0 0.00 0.00 0.00 80 1017.5
20260507205032 52 47 0.0 0.0 0.00 0.00 0.00 79 1017.5
20260507202030 53 47 0.0 2.0 0.00 0.00 0.00 79 1017.4
20260507200530 53 47 1.0 5.0 0.00 0.00 0.00 79 1017.1
20260507195031 53 36 2.0 4.0 0.00 0.00 0.00 79 1017.0
20260507193523 53 58 2.0 4.0 0.00 0.00 0.00 78 1017.0
20260507190523 55 66 2.0 7.0 0.00 0.00 0.00 75 1016.6
20260507185022 56 39 1.0 4.0 0.00 0.00 0.00 74 1016.2
20260507183525 56 140 1.0 5.0 0.00 0.00 0.00 73 1016.2
20260507182015 56 186 1.0 6.0 0.00 0.00 0.00 73 1016.1
20260507180515 56 23 1.0 6.0 0.00 0.00 0.00 73 1015.7
20260507175016 56 235 1.0 8.0 0.00 0.00 0.00 73 1015.5
20260507173518 57 348 2.0 9.0 0.00 0.00 0.00 73 1015.3
20260507172018 57 53 2.0 6.0 0.00 0.00 0.00 72 1015.1
20260507165016 58 104 2.0 5.0 0.00 0.00 0.00 70 1015.2
20260507163518 58 261 1.0 3.0 0.00 0.00 0.00 66 1015.1
20260507162017 59 281 1.0 7.0 0.00 0.00 0.00 66 1015.1
20260507160519 59 92 1.0 5.0 0.00 0.00 0.00 67 1014.8
20260507155016 59 292 2.0 8.0 0.00 0.00 0.00 68 1014.8
20260507152016 61 234 2.0 10.0 0.00 0.01 0.00 65 1014.8
20260507150512 62 90 3.0 8.0 0.00 0.09 0.00 61 1014.6
20260507145013 62 254 2.0 7.0 0.00 0.24 0.00 64 1014.6
20260507143513 60 300 3.0 12.0 0.00 0.33 0.00 66 1014.7
20260507140515 61 161 2.0 7.0 0.00 0.33 0.00 64 1014.7
20260507135012 62 74 3.0 8.0 0.00 0.33 0.00 63 1014.8
20260507133515 62 38 3.0 7.0 0.00 0.33 0.00 62 1014.8